Flag for Switzerland Weather past 2 weeks in Lucerne, Lucerne, Switzerland

Now
31 °F

Chilly.


Feels Like: 31 °F
Forecast: 21 / 38 °F
Wind: No wind

Location: Altdorf

Current Time: Jan 27, 2015 at 3:04:29 AM

Latest Report: Jan 27, 2015 at 2:00 AM


Visibility: N/A

Pressure: 30.24 "Hg

Humidity: 98%

Dew point: 31 °F

Location of LucerneLocation

Historic Weather in Lucerne — Graph

°F

Lucerne temperature yesterday

Maximum temperature yesterday: 34 °F (at 4:00 PM)
Minimum temperature yesterday: 24 °F (at 6:00 AM)
Average temperature yesterday: 29 °F

Past Weeks' High & Low Weather Summary

 TemperatureHumidityPressure
High58 °F (Jan 16, 11:00 AM)99% (Jan 27, 1:00 AM)30.54 "Hg (Jan 27, 1:00 AM)
Low24 °F (Jan 26, 6:00 AM)23% (Jan 13, 2:00 PM)29.62 "Hg (Jan 16, 3:00 PM)
Average37 °F76%30.07 "Hg
* Reported Jan 12 1:00 AM — Jan 27 1:00 AM, Lucerne, Weather by CustomWeather, © 2014

Note: Actual official high and low records may vary slightly from our data, if they occured in-between our weather recording intervals... More about our weather records

Advertising

Lucerne weather history for previous 24 hours

 ConditionsComfort  
Time TempWeatherWind HumidityBarometerVisibility
1:00 AM
Jan 27
31 °FLight snow. Overcast.No wind99%30.25 "Hg6 mi
12:00 AM32 °FChilly.1 mph95%30.26 "HgN/A
11:00 PM
Jan 26
31 °FChilly.1 mph98%30.27 "HgN/A
9:00 PM30 °FChilly.1 mph96%30.28 "HgN/A
8:00 PM30 °FChilly.1 mph98%30.29 "HgN/A
7:00 PM29 °FLight rain. Ice fog.No wind97%30.30 "Hg1 mi
6:00 PM30 °FChilly.2 mph93%30.32 "HgN/A
5:00 PM33 °FChilly.1 mph71%30.31 "HgN/A
4:00 PM34 °FOvercast.2 mph58%30.31 "Hg12 mi
3:00 PM33 °FChilly.No wind58%30.32 "HgN/A
2:00 PM33 °FChilly.No wind58%30.34 "HgN/A
1:00 PM32 °FOvercast.1 mph60%30.37 "Hg12 mi
12:00 PM32 °FChilly.2 mph61%30.39 "HgN/A
11:00 AM31 °FChilly.1 mph63%30.42 "HgN/A
10:00 AM29 °FOvercast.2 mph68%30.43 "Hg12 mi
9:00 AM28 °FChilly.2 mph71%30.44 "HgN/A
8:00 AM26 °FChilly.3 mph73%30.45 "HgN/A
7:00 AM26 °FPassing clouds.2 mph74%30.46 "Hg12 mi
6:00 AM24 °FCold.5 mph81%30.46 "HgN/A
5:00 AM25 °FCold.2 mph80%30.46 "HgN/A
4:00 AM25 °FPassing clouds.3 mph77%30.46 "Hg14 mi
3:00 AM25 °FChilly.3 mph82%30.46 "HgN/A
Weather by CustomWeather, © 2014

See weather overviewHow to use our weather pages